User: anonymous   Login
Location: Ferma
(41.9500°N, 44.5167°E)
Time: 00:44:47
(UTC+00:00)
Language:

FENGYUN 1C DEB - Orbit

View from above orbital plane
View from above orbital plane
View from above satellite
View from above satellite

Ground track
Ground track

The orbit data is extracted from the following two-line orbital elements,

1 36699U 99025DZV 22225.31654039  .00000277  00000-0  13787-3 0  9997
2 36699  98.5493 239.7052 0098794  72.2255 288.9674 14.21705321560147
Epoch (UTC): 13 August 2022 07:35:49
Eccentricity: 0.0098794
inclination: 98.5493°
perigee height: 748 km
apogee height: 891 km
right ascension of ascending node: 239.7052°
argument of perigee: 72.2255°
revolutions per day: 14.21705321
mean anomaly at epoch: 288.9674°
orbit number at epoch: 56014

The dashed part of the orbit path shows where the satellite is in the earth's shadow,  

DLR